Regional Weather Roundup
Issued by NWS Albany, NY

Home | Current Version | Previous Version | Text Only | Print | Product List | Glossary On
Versions: 1 2 3 4 5 6 7 8 9 10 11 12 13 14 15 16 17 18 19 20 21 22 23 24 25 26 27 28
000
ASUS41 KALY 231610
RWRALY

NEW YORK STATE HOURLY WEATHER ROUNDUP
NATIONAL WEATHER SERVICE ALBANY NY
1200 PM EDT TUE AUG 23 2016

NOTE: "FAIR" INDICATES FEW OR NO CLOUDS BELOW 12,000 FEET WITH NO
SIGNIFICANT WEATHER AND/OR NO OBSTRUCTIONS TO VISIBILITY.

NYZ032-033-038>043-046>054-057>066-NYZ062>081-082-084-231700-
EAST


CITY           SKY/WX    TMP DP  RH WIND       PRES   REMARKS
ALBANY         MOSUNNY   73  55  53 VRB3      30.29F
GLENS FALLS    SUNNY     71  57  61 SE8       30.27F
POUGHKEEPSIE     N/A     76  52  43 CALM      30.30F
NEWBURGH       SUNNY     72  57  60 W9        30.33F
MONTGOMERY     MOSUNNY   74  57  55 S3        30.31F
WHITE PLAINS   MOSUNNY   75  47  36 W8        30.31F
ISLIP          MOSUNNY   76  47  35 W7        30.31F
NEW YORK CITY  MOSUNNY   79  48  33 N6        30.30F
CENTRAL PARK   SUNNY     77  49  37 CALM      30.34F
$$

NYZ005>009-017-018-044>046-055-056-231700-
CENTRAL


CITY           SKY/WX    TMP DP  RH WIND       PRES   REMARKS
FULTON         SUNNY     74  57  55 W6        30.27F
SYRACUSE       MOSUNNY   74  56  53 W7        30.27F
ROME           SUNNY     70  57  63 SW3       30.30F
ELMIRA         SUNNY     74  54  49 SW6       30.30F
BINGHAMTON     MOSUNNY   70  52  52 W8        30.34S
MONTICELLO     SUNNY     70  55  60 NW7       30.35F
$$

NYZ026>034-041>043-087-231700-
NORTH


CITY           SKY/WX    TMP DP  RH WIND       PRES   REMARKS
WATERTOWN      SUNNY     74  53  48 SW14G21   30.25F
FORT DRUM      NOT AVBL
MASSENA        SUNNY     74  53  48 SW14G26   30.22F
SARANAC LAKE   SUNNY     69  48  47 SW10G16   30.26F
PLATTSBURGH    SUNNY     76  54  46 SW8       30.22S
$$

NYZ001>004-010>016-019>021-085-231700-
WEST


CITY           SKY/WX    TMP DP  RH WIND       PRES   REMARKS
NIAGARA FALLS  MOSUNNY   78  56  46 SW15G21   30.26F
BUFFALO        MOSUNNY   75  55  49 S16       30.28S
DUNKIRK        SUNNY     75  54  47 S5        30.29F
JAMESTOWN      SUNNY     70  52  52 SW5       30.34S
WELLSVILLE     SUNNY     70  49  47 S5        30.36F
ROCHESTER      MOSUNNY   77  57  50 VRB6      30.27F
PENN YAN       MOSUNNY   76  56  49 MISG      30.31F
$$

             KEY
       WCI = WIND CHILL INDEX
       VSB = VISIBILITY
       HX  = HEAT INDEX
$$




USA.gov is the U.S. government's official web portal to all federal, state and local government web resources and services.